Regional Weather Roundup
Issued by NWS

Home | Current Version | Previous Version | Text Only | Print | Product List | Glossary On
Versions: 1 2 3 4 5 6 7 8 9 10 11 12 13 14 15 16 17 18 19 20 21 22 23 24 25 26 27 28 29 30 31 32 33 34 35 36 37 38 39 40 41 42 43 44 45 46 47 48 49 50
000
ASUS44 KLUB 291010
RWRTX
WEST TEXAS WEATHER ROUNDUP
NATIONAL WEATHER SERVICE LUBBOCK TX
500 AM CDT SUN MAY 29 2016

NOTE: "FAIR" INDICATES FEW OR NO CLOUDS BELOW 12,000 FEET WITH NO
SIGNIFICANT WEATHER AND/OR OBSTRUCTIONS TO VISIBILITY.

TXZ004-006>008-010-012-014-016-OKZ002-291100-
TEXAS PANHANDLE/OKLAHOMA PANHANDLE

CITY           SKY/WX    TMP DP  RH WIND       PRES   REMARKS
AMARILLO       CLEAR     57  51  80 SE15      30.09R
BORGER         CLEAR     63  56  78 SE6       30.07R
CANADIAN       CLOUDY    60  57  89 CALM      30.06S
DALHART        PTCLDY    59  49  69 CALM      30.14R
DUMAS          PTCLDY    53  48  82 NE7       30.10R
GUYMON         PTCLDY    56  48  74 SW5       30.10R
HEREFORD       PTCLDY    59  54  81 S7        30.10R
PAMPA          CLEAR     62  57  82 SE12      30.09R
PERRYTON       CLOUDY    59  53  82 CALM      30.10S
$$

TXZ026-029-035-045-048-291100-
SOUTHERN PANHANDLE/SOUTH PLAINS/ROLLING PLAINS

CITY           SKY/WX    TMP DP  RH WIND       PRES   REMARKS
CHILDRESS      PTCLDY    65  60  84 SE12      30.06R
SEMINOLE       MOCLDY    63  57  80 SE13      30.07R
LUBBOCK        PTCLDY    63  54  72 SE16      30.08R
PLAINVIEW      CLEAR     56  50  78 S7        30.08R
SNYDER           N/A     63  58  83 SE10      30.06S
$$

TXZ052-054-060>062-072-078-127-140-154-169-291100-
PERMIAN BASIN/CONCHO VALLEY/BIG COUNTRY/EDWARDS PLATEAU

CITY           SKY/WX    TMP DP  RH WIND       PRES   REMARKS
ABILENE        CLOUDY    66  63  90 E15       30.06F
BIG SPRING     CLEAR     62  59  89 E16G24    30.07R
BROWNWOOD      CLOUDY    66  63  88 N12G18    30.12R
JUNCTION       CLOUDY    70  60  70 CALM      30.03R
MIDLAND        MOCLDY    73  59  61 E18       30.03R
ODESSA         MOCLDY    72  59  63 SE18      30.04R
SAN ANGELO     CLOUDY    70  63  78 NE15      30.07R
SONORA         CLEAR     70  63  78 SE9G16    30.06R
SWEETWATER     CLOUDY    64  59  85 E14       30.08F
$$

TXZ055-058-074-075-080-082-291100-
FAR WEST/SOUTHWEST MOUNTAINS/TRANS PECOS

CITY           SKY/WX    TMP DP  RH WIND       PRES   REMARKS
ALPINE         CLEAR     62  56  80 SW6       30.11R
DRYDEN           N/A     71  69  93 E23G30    29.96R
EL PASO        CLOUDY    78   1   5 NW5       30.03R
MARFA          CLEAR     54  49  83 N7        30.10R
PECOS          PTCLDY    72  65  78 E13       29.95R
PRESIDIO       FAIR      77  61  56 N8G16     29.93R
$$

TXZ014-016-019-021>030-083-291100
TEXAS TECH WEST TEXAS MESONET/TEXAS PANHANDLE/NORTHERN SOUTH PLAINS

CITY           SKY/WX    TMP DP  RH WIND       PRES   REMARKS
ABERNATHY 5ENE   N/A     61  55  79 SE14      30.11R
AMARILLO 9NNE    N/A     62  55  77 SE14      30.08R
AMHERST 1NE      N/A     62  53  73 SE8       30.11R
BOOTLEG 11WNW    N/A     54  49  82 SE9       30.15R
CANADIAN 6E      N/A     61  57  87 E6        30.07R
CAPROCK CYN SP   N/A     57  54  89 S3        30.10R
CHILDRESS 2NNE   N/A     63  59  87 SE10      30.08R
CLARENDON 2WSW   N/A     60  57  88 E5        30.09S
CLAUDE 12SW      N/A     59  53  80 S8        30.11R
DIMMITT 2NE      N/A     60  52  73 SE13      30.11R
FLOYDADA 2NNE    N/A     60  54  79 S10       30.09R
FRIONA 2NE       N/A     58  51  78 SE6       30.13R
GOODLETT 3W      N/A     67  59  75 SE14      30.06R
HART 3N          N/A     60  53  75 SE9       30.11R
HEREFORD 2NW     N/A     60  50  69 SE7       30.13R
MCLEAN 1E        N/A     63  58  86 E8        30.08S
MEMPHIS 1NE      N/A     63  60  90 E3        30.08R
MULESHOE 2SSW    N/A     60  51  72 SE5       30.11R
OLTON 6S         N/A     60  54  79 SE9       30.10R
PALO DURO SP     N/A     62  53  72 S9        30.12R
PAMPA 2E         N/A     58  55  91 SE9       30.10R
PLAINVIEW 1S     N/A     60  55  81 SE8       30.10R
SILVERTON 7ESE   N/A     56  52  85 SE7       30.09R
TULIA 2ENE       N/A     56  52  85 SE8       30.11R
TURKEY 2WSW      N/A     62  57  83 SE7       30.08S
$$

TXZ033>036-039>041-045>048-291100
TEXAS TECH WEST TEXAS MESONET/SOUTH PLAINS

CITY           SKY/WX    TMP DP  RH WIND       PRES   REMARKS
AIKEN 3WSW       N/A     61  55  80 SE12      30.11R
ANDREWS 2NE      N/A     65  59  80 E12G18    30.08R
ANTON 6SSW       N/A     65  53  65 SE15      30.10R
BROWNFIELD 2S    N/A     64  55  72 SE21G26   30.09R
DENVR CTY 7WNW   N/A     62  55  75 E18G24    30.09R
GAIL 2ESE        N/A     65  57  73 SE10      30.06S
LAMESA 2SE       N/A     64  58  80 E12       30.08R
LEVELLAND 4S     N/A     66  52  60 SE16      30.09R
ODONNELL 1N      N/A     64  54  69 SE13      30.08R
PLAINS 3N        N/A     63  54  70 SE18      30.09R
RALLS 1SE        N/A     62  54  77 SE13      30.10R
SEAGRAVES 1SW    N/A     64  56  74 E14G21    30.08R
SEMINOLE 2NNE    N/A     63  56  78 E15       30.08R
SLATON 2NE       N/A     63  55  76 SE10      30.10R
SNYDER 3E        N/A     63  58  84 SE18      30.05F
SUNDOWN 8SW      N/A     65  53  67 SE15G21   30.09R
WOLFFORTH 6SSW   N/A     63  55  75 SE14      30.09R
$$

TXZ031-032-036>038-042>044-291100-
TEXAS TECH WEST TEXAS MESONET/ROLLING PLAINS

CITY           SKY/WX    TMP DP  RH WIND       PRES   REMARKS
FLUVANNA 3WNW    N/A     64  56  73 E15       30.06S
GRAHAM 5SSW      N/A     65  56  71 SE14      30.08R
GUTHRIE 10WSW    N/A     64  55  72 SE10      30.06S
HASKELL 1NW      N/A     67  56  68 E17G26    30.04F
JAYTON 1SSE      N/A     64  58  80 E10       30.07R
KNOX CITY 3NW    N/A     67  56  68 SE15G21   30.04F
LK A HENRY 1NW   N/A     67  56  68 SE9       30.06R
NORTHFIELD 1S    N/A     62  57  85 SE5       30.07R
ODELL 4ENE       N/A     69  56  65 S15       30.06R
PADUCAH 10SW     N/A     63  56  78 S8        30.08R
POST 1NE         N/A     64  58  79 SE5       30.07S
RRING SPRGS 3N   N/A     62  56  80 SE9       30.10R
SEYMOUR 3NW      N/A     68  56  66 SE22G31   30.05R
SPUR 1W          N/A     64  55  74 E6        30.08R
WEINERT 2NNE     N/A     66  59  76 SE15      30.05S
WHITE RVR 6NE    N/A     61  54  78 SE7       30.09R
$$

TXZ052-054-060>062-072-078-127-140-154-169-291100-
TEXAS TECH WEST TEXAS MESONET/PERMIAN BASIN/
CONCHO VALLEY/BIG COUNTRY/EDWARDS PLATEAU

CITY           SKY/WX    TMP DP  RH WIND       PRES   REMARKS
COYANOSA 2N      N/A     72  66  82 E7        29.98R
JUNCTION 1SSW    N/A     69  61  75 S10       30.03R
MERTZON 3NNE     N/A     70  62  77 NE10      30.09R
SAN ANGELO 7NW RAIN      68  63  83 N9G16     30.11R
ST LAWRNCE 5SW   N/A     69  59  71 E17G24    30.06R
SWEETWATR 11SW   N/A     62  59  88 E13       30.08F
WALL 1E          N/A     67  62  83 NE13      30.09R
$$

TXZ055-058-074-075-080-082-291100-
TEXAS TECH WEST TEXAS MESONET/FAR WEST/SOUTHWEST MOUNTAINS/TRANS PECOS

CITY           SKY/WX    TMP DP  RH WIND       PRES   REMARKS
PRSMN GAP BBNP   N/A     75  65  71 NE12      29.97S
GUADLPE MTN NP   N/A     61  54  76 CALM      30.14S
$$




USA.gov is the U.S. government's official web portal to all federal, state and local government web resources and services.